COSMOS 2476 (744)

Last updated on Wed Sep 09 2026 00:03:24 GMT+0000 (Coordinated Universal Time)

1 37867U 11064A 26251.49821551 .00000035 00000+0 00000+0 0 9990 2 37867 65.3215 70.0615 0022347 231.0962 127.2260 2.13103505115530
UTC large
Height (km)
Speed (km/s)
/
Latitude / Longitude
Inclination (degrees)
Orbital Period (minutes)
Azimuth
Elevation
Range (km)
Doppler Factor

Next 0 passes for location: London (51.5072 / 0.1276)

No passes found over London.
COSMOS 2476 (744)